FW2315 Weather Reports


Display with metric or nautical units.
time (UTC)temp
F
wind
direction
speed
MPH
gust
MPH
rain 1hr
in
rain 24hr
in
rain mn
in
humidity
%
barometer
mb
20260507024501 48 245 2.0 5.0 0.03 1.65 0.34 94 1014.6
20260507023100 48 312 1.0 3.0 0.03 1.64 0.33 94 1015.0
20260507021617 48 348 1.0 3.0 0.03 1.63 0.32 94 1014.8
20260507020107 48 99 1.0 4.0 0.02 1.62 0.31 94 1014.9
20260507014615 48 279 0.0 3.0 0.02 1.65 0.31 94 1014.6
20260507013058 48 63 0.0 3.0 0.02 1.64 0.30 94 1014.5
20260507011558 48 355 0.0 2.0 0.02 1.63 0.28 94 1014.6
20260507010109 48 313 1.0 2.0 0.05 1.63 0.28 94 1014.7
20260507004555 48 281 1.0 4.0 0.06 1.68 0.28 94 1014.6
20260507003055 48 75 1.0 8.0 0.09 1.67 0.28 94 1014.8
20260507001558 49 292 3.0 4.0 0.11 1.66 0.27 94 1014.8
20260507000053 49 161 2.0 8.0 0.10 1.63 0.24 94 1014.9
20260506234553 49 254 1.0 9.0 0.12 1.72 0.23 92 1014.7
20260506233053 49 296 2.0 4.0 0.11 1.68 0.19 93 1015.3
20260506231546 49 99 0.0 2.0 0.16 1.65 0.16 93 1015.1
20260506230044 49 155 0.0 1.0 0.14 1.63 0.14 93 1014.7
20260506224542 49 180 1.0 4.0 0.11 1.63 0.11 92 1014.5
20260506223041 49 317 2.0 5.0 0.08 1.60 0.08 91 1014.3
20260506221539 49 27 2.0 4.0 0.00 1.52 0.00 92 1014.5
20260506220039 49 82 3.0 5.0 0.00 1.52 0.00 91 1014.2
20260506214536 49 67 0.0 3.0 0.00 1.52 1.52 91 1013.9
20260506213036 49 320 1.0 4.0 0.00 1.52 1.52 90 1013.8
20260506211535 50 250 1.0 6.0 0.00 1.52 1.52 89 1013.9
20260506210034 50 273 5.0 12.0 0.03 1.52 1.52 88 1013.9
20260506204534 50 314 2.0 5.0 0.11 1.52 1.52 89 1014.0
20260506203033 50 5 3.0 14.0 0.15 1.52 1.52 90 1013.7
20260506201543 49 244 9.0 21.0 0.18 1.52 1.52 93 1013.5
20260506200031 49 277 6.0 10.0 0.18 1.49 1.49 93 1013.4
20260506194529 50 101 0.0 7.0 0.11 1.41 1.41 92 1014.6
20260506193025 50 76 0.0 7.0 0.07 1.37 1.37 91 1013.9
20260506191522 50 82 0.0 6.0 0.05 1.34 1.34 90 1013.2
20260506190021 50 271 5.0 10.0 0.02 1.31 1.31 88 1012.7
20260506184519 50 281 2.0 9.0 0.02 1.30 1.30 88 1012.2
20260506183018 50 274 4.0 13.0 0.02 1.30 1.30 87 1012.0
20260506181518 51 267 5.0 11.0 0.01 1.29 1.29 86 1011.8
20260506180017 51 315 2.0 8.0 0.01 1.29 1.29 85 1012.0
20260506174513 52 313 5.0 12.0 0.00 1.28 1.28 83 1011.7
20260506173013 52 256 4.0 10.0 0.00 1.28 1.28 83 1011.7
20260506171513 52 304 5.0 12.0 0.00 1.28 1.28 83 1011.2
20260506170013 52 295 8.0 15.0 0.02 1.28 1.28 86 1011.3
20260506164510 52 261 8.0 15.0 0.08 1.28 1.28 88 1011.5
20260506163015 52 287 4.0 13.0 0.19 1.28 1.28 86 1011.0
20260506161508 52 246 4.0 11.0 0.31 1.28 1.28 86 1010.8
20260506160012 52 281 10.0 17.0 0.32 1.26 1.26 89 1010.7
20260506154504 52 286 7.0 11.0 0.26 1.19 1.19 89 1011.4
20260506153059 52 360 4.0 9.0 0.19 1.09 1.09 90 1011.8
20260506151559 52 325 1.0 4.0 0.16 0.97 0.97 90 1011.9
20260506150057 53 333 3.0 10.0 0.22 0.94 0.94 90 1011.5
20260506144600 53 310 4.0 9.0 0.23 0.93 0.93 92 1010.9
20260506143055 54 291 3.0 5.0 0.19 0.89 0.89 91 1010.8
20260506141557 54 313 2.0 4.0 0.11 0.81 0.81 90 1010.9
20260506140101 55 210 1.0 6.0 0.02 0.72 0.72 90 1010.9
20260506134551 55 277 1.0 7.0 0.00 0.70 0.70 90 1010.3
20260506133051 55 276 1.0 5.0 0.00 0.70 0.70 87 1010.2
20260506131550 55 288 1.0 9.0 0.01 0.70 0.70 89 1010.0
20260506130053 56 288 2.0 4.0 0.01 0.70 0.70 88 1009.8
20260506124547 56 230 1.0 3.0 0.01 0.70 0.70 89 1009.9
20260506123046 56 5 0.0 3.0 0.01 0.70 0.70 87 1010.1
20260506121545 56 76 1.0 3.0 0.00 0.69 0.69 89 1009.9
20260506120050 55 302 1.0 5.0 0.00 0.69 0.69 89 1009.7
20260506114550 56 268 6.0 9.0 0.00 0.69 0.69 91 1009.9
20260506113043 56 330 2.0 8.0 0.01 0.69 0.69 91 1009.9
20260506111543 56 266 1.0 5.0 0.02 0.69 0.69 89 1010.3
20260506110038 55 268 1.0 4.0 0.04 0.69 0.69 90 1010.3
20260506104541 54 84 0.0 0.0 0.11 0.69 0.69 91 1010.5
20260506103035 54 69 0.0 4.0 0.14 0.68 0.68 93 1010.5
20260506101537 54 42 0.0 3.0 0.18 0.67 0.67 94 1010.6
20260506100038 53 62 2.0 6.0 0.17 0.64 0.64 94 1010.9
20260506094533 54 103 3.0 6.0 0.11 0.60 0.57 94 1010.5
20260506093052 54 268 0.0 3.0 0.07 0.56 0.54 94 1010.2
20260506091533 54 198 1.0 2.0 0.03 0.51 0.49 94 1009.9
20260506090034 54 144 1.0 2.0 0.03 0.49 0.47 94 1009.6
20260506084530 54 68 1.0 3.0 0.06 0.60 0.47 94 1009.9
20260506083025 54 61 0.0 2.0 0.07 0.60 0.47 94 1010.0
20260506081525 54 61 0.0 1.0 0.07 0.59 0.46 94 1010.1
20260506073021 53 68 0.0 2.0 0.03 0.56 0.40 95 1010.3
20260506071519 53 57 0.0 3.0 0.03 0.56 0.39 95 1010.5
20260506061517 53 163 0.0 0.0 0.09 0.53 0.36 95 1010.7
20260506044515 53 50 0.0 0.0 0.01 0.41 0.24 95 1010.7
20260506043011 53 315 0.0 2.0 0.01 0.41 0.24 95 1010.7
20260506041511 53 315 0.0 0.0 0.01 0.41 0.24 95 1010.7
20260506040011 53 315 0.0 2.0 0.01 0.41 0.24 95 1010.7
20260506034508 53 36 0.0 2.0 0.00 0.40 0.23 95 1010.9
20260506033006 53 291 0.0 0.0 0.01 0.40 0.23 95 1011.0
20260506031506 53 291 0.0 0.0 0.02 0.40 0.23 95 1011.0
20260506030004 53 291 0.0 2.0 0.02 0.40 0.23 95 1011.2